Location: Allaines
(49.9632°N, 2.9458°E)
Time: 21:25:26
(UTC+00:00)

X-37B - Pass Details

Date: 02 July 2021
Orbit: 383 x 392 km, 45.0° (Epoch: 01 July)

Event Time Altitude Azimuth Distance (km) Brightness Sun altitude
Rises 21:22:33 0° 267° (W) 2,260 4.9 -9.9°
Reaches altitude 10° 21:25:05 10° 246° (WSW) 1,403 3.5 -10.1°
Maximum altitude 21:27:14 17° 203° (SSW) 1,055 2.5 -10.3°
Enters shadow 21:28:31 14° 174° (S) 1,186 2.5 -10.4°
